This is the latest recevied weather packets stored in our database for station/object N3EDS. If no packets are shown the sender has not sent any weather packets the latest 10 day(s).
| Time | Temp. | Humidity | Pressure | Rain* | Wind** | Luminosity | Snow |
|---|---|---|---|---|---|---|---|
| 1777905609 | 16.11° C | 48% | 1012.8 hPa | 0 mm | - | 413 W/m² | - |
| 1777905306 | 16.11° C | 49% | 1012.8 hPa | 0 mm | - | 276 W/m² | - |
| 1777905004 | 15.56° C | 49% | 1012.6 hPa | 0 mm | - | 705 W/m² | - |
| 1777904700 | 15.56° C | 50% | 1012.6 hPa | 0 mm | - | 157 W/m² | - |
| 1777904397 | 15° C | 51% | 1012.8 hPa | 0 mm | - | 119 W/m² | - |
| 1777904094 | 15.56° C | 50% | 1012.8 hPa | 0 mm | - | 188 W/m² | - |
| 1777903791 | 15° C | 54% | 1012.8 hPa | 0 mm | - | 141 W/m² | - |
| 1777903487 | 15° C | 53% | 1012.9 hPa | 0 mm | - | 75 W/m² | - |
| 1777903184 | 15° C | 52% | 1013 hPa | 0 mm | - | 121 W/m² | - |
| 1777902880 | 14.44° C | 54% | 1012.8 hPa | 0 mm | - | 220 W/m² | - |
| 1777902577 | 13.89° C | 54% | 1013 hPa | 0 mm | - | 482 W/m² | - |
| 1777902274 | 13.89° C | 55% | 1013.2 hPa | 0 mm | - | 179 W/m² | - |
| 1777901973 | 13.33° C | 58% | 1013.1 hPa | 0 mm | - | 171 W/m² | - |
| 1777901670 | 13.33° C | 57% | 1013.3 hPa | 0 mm | - | 218 W/m² | - |
| 1777901367 | 13.33° C | 57% | 1013.4 hPa | 0 mm | - | 194 W/m² | - |
| 1777901065 | 12.78° C | 58% | 1013.4 hPa | 0 mm | - | 142 W/m² | - |
| 1777900761 | 12.78° C | 60% | 1013.3 hPa | 0 mm | - | 116 W/m² | - |
| 1777900459 | 12.22° C | 59% | 1013.6 hPa | 0 mm | - | 87 W/m² | - |
| 1777900155 | 11.67° C | 60% | 1013.1 hPa | 0 mm | - | 68 W/m² | - |
| 1777899852 | 11.67° C | 60% | 1013.4 hPa | 0 mm | - | 78 W/m² | - |
| 1777899549 | 11.11° C | 62% | 1013.3 hPa | 0 mm | - | 57 W/m² | - |
| 1777899247 | 11.11° C | 61% | 1013.2 hPa | 0 mm | - | 64 W/m² | - |
| 1777898944 | 11.11° C | 63% | 1013.4 hPa | 0 mm | - | 110 W/m² | - |
| 1777898640 | 10.56° C | 64% | 1013.4 hPa | 0 mm | - | 134 W/m² | - |
| 1777898338 | 10.56° C | 66% | 1013.4 hPa | 0 mm | - | 68 W/m² | - |
* Rain latest hour (hover to see other rain measurements)
** Current wind speed in m/s (hover to see current wind gust speed)